Location: Bakov nad Jizerou
(50.4784°N, 14.9394°E)
Time: 23:39:18
(UTC+00:00)

Cosmos 2333 Rocket - Pass Details

Date: 16 June 2021
Orbit: 841 x 861 km, 70.8° (Epoch: 23 July)

Event Time Altitude Azimuth Distance (km) Brightness Sun altitude
Exits shadow 21:09:03 10° 189° (S) 2,510 4.2 -12.1°
Reaches altitude 10° 21:09:07 10° 189° (S) 2,489 4.2 -12.1°
Maximum altitude 21:14:41 56° 113° (ESE) 1,014 2.4 -12.5°
Drops below altitude 10° 21:20:17 10° 36° (NE) 2,495 5.1 -12.9°
Sets 21:22:46 0° 33° (NNE) 3,432 5.9 -13.0°
